Current Version              Previous Version:    01  02  03  04  05  06  07  08  09  10  11  12  13  14  15  16  17  18  19  20  21  22  23  24  25  26  27  28  29  30  
   31  32  33  34  35  36  37  38  39  40  41  42  43  44  45  46  47  48  49  50  51  52  53  54  55  56  57  58  59  60  

[Printable]
772
ASUS44 KLUB 211701
RWRTX
WEST TEXAS WEATHER ROUNDUP
NATIONAL WEATHER SERVICE LUBBOCK TX
1200 PM CDT THU AUG 21 2014

NOTE: "FAIR" INDICATES FEW OR NO CLOUDS BELOW 12,000 FEET WITH NO
SIGNIFICANT WEATHER AND/OR OBSTRUCTIONS TO VISIBILITY.

TXZ004-006>008-010-012-014-016-OKZ002-211800-
TEXAS PANHANDLE/OKLAHOMA PANHANDLE

CITY           SKY/WX    TMP DP  RH WIND       PRES   REMARKS
AMARILLO       SUNNY     87  64  46 S17       30.02S
BORGER         SUNNY     90  62  39 SW15      29.98S
CANADIAN       SUNNY     91  66  44 SW13G24   29.95S
DALHART        MOSUNNY   86  54  33 W5        30.04R
DUMAS          SUNNY     88  60  37 SW13      30.02S
GUYMON         SUNNY     91  57  31 W14       29.94S
HEREFORD       SUNNY     84  68  57 S10G17    30.04F
PAMPA          SUNNY     88  59  37 SW20G28   30.01S
PERRYTON       SUNNY     92  61  36 SW24      29.96S
$$

TXZ026-029-035-045-048-211800-
SOUTHERN PANHANDLE/SOUTH PLAINS/ROLLING PLAINS

CITY           SKY/WX    TMP DP  RH WIND       PRES   REMARKS
CHILDRESS      MOSUNNY   92  68  45 SW20G25   29.98S HX  96
SEMINOLE       SUNNY     89  57  33 SW14      30.06R
LUBBOCK        SUNNY     86  66  51 SW16      30.04S
PLAINVIEW      SUNNY     84  64  50 SW10      30.04R
SNYDER         SUNNY     86  69  56 S18G25    30.04S
$$

TXZ052-054-060>062-072-078-127-140-154-169-211800-
PERMIAN BASIN/CONCHO VALLEY/BIG COUNTRY/EDWARDS PLATEAU

CITY           SKY/WX    TMP DP  RH WIND       PRES   REMARKS
ABILENE        SUNNY     90  70  51 S20G30    30.03S HX  95
BIG SPRING     SUNNY     88  65  47 S17G25    30.05F
BRADY          SUNNY     88  70  55 S10       30.06S
BROWNWOOD      SUNNY     90  68  48 S15       30.04S
JUNCTION       SUNNY     86  68  54 S9        30.06F
MIDLAND        SUNNY     87  66  49 S17       30.04S
ODESSA         SUNNY     85  66  53 MISG      30.05S
SAN ANGELO     SUNNY     88  69  53 S14G24    30.03S
SONORA         SUNNY     84  70  61 S12       30.11S
SWEETWATER     SUNNY     89  68  50 S20G25    30.06F
WINK           SUNNY     91  60  35 SW8       30.01S
$$

TXZ055-058-074-075-080-082-211800-
FAR WEST/SOUTHWEST MOUNTAINS/TRANS PECOS

CITY           SKY/WX    TMP DP  RH WIND       PRES   REMARKS
ALPINE         MOSUNNY   81  59  47 SW12      30.21S
DRYDEN           N/A     93  66  40 SE7       30.03S HX  96
EL PASO        MOSUNNY   84  52  33 S12       30.09R
FORT STOCKTON  SUNNY     89  61  38 SW13      30.05S
GUADALUPE PASS MOSUNNY   77  49  37 SW20G25   30.22R
MARFA          SUNNY     79  63  57 S8        30.22R
PRESIDIO       FAIR      85  62  46 CALM      30.07S
$$

TXZ014-016-019-021>030-083-211800
TEXAS TECH WEST TEXAS MESONET/TEXAS PANHANDLE/NORTHERN SOUTH PLAINS

CITY           SKY/WX    TMP DP  RH WIND       PRES   REMARKS
ABERNATHY 5ENE   N/A     85  64  49 S16       30.06S
AMARILLO 9NNE    N/A     88  64  44 SW12      29.99F
AMARILLO 7SSE    N/A     87  64  46 S14       30.04S
AMHERST 1NE      N/A     84  64  49 S13       30.05S
BOOTLEG 11WNW    N/A     87  59  38 S13       30.08S
CANADIAN 6E      N/A     90  65  44 S13       29.95F
CAPROCK CYN SP   N/A     87  67  50 SW14      30.00F
CHILDRESS 2NNE   N/A     90  68  47 S17       29.98S
CLARENDON 2WSW   N/A     85  63  47 S16       30.00S
CLAUDE 12SW      N/A     86  62  45 SW10      30.03S
DIMMITT 2NE      N/A     82  64  53 S16       30.05S
FLOYDADA 2NNE    N/A     83  65  54 S18       30.04S
FRIONA 2NE       N/A     83  63  50 S14       30.06S
GOODLETT 3W      N/A     91  67  43 S18       29.96S
HART 3N          N/A     82  64  55 S15       30.05S
HEREFORD 2NW     N/A     81  64  54 S10       30.05S
MCLEAN 1E        N/A     86  65  49 S20       29.99S
MEMPHIS 1NE      N/A     88  67  50 S12       29.97F
MULESHOE 2SSW    N/A     86  61  42 S7        30.05S
OLTON 6S         N/A     84  62  46 S14       30.04F
PALO DURO SP     N/A     88  63  42 S12       30.03F
PAMPA 2E         N/A     86  62  44 S17       30.01S
PLAINVIEW 1S     N/A     84  65  51 S15       30.04R
SILVERTON 7ESE   N/A     85  66  52 S16       30.03S
TULIA 2ENE       N/A     85  63  48 S17       30.03S
TURKEY 2WSW      N/A     87  67  52 S16       29.99S
UMBARGER 3NNE    N/A     83  64  53 S15       30.04S
$$

TXZ033>036-039>041-045>048-211800
TEXAS TECH WEST TEXAS MESONET/SOUTH PLAINS

CITY           SKY/WX    TMP DP  RH WIND       PRES   REMARKS
AIKEN 3WSW       N/A     86  66  51 S16       30.05S
ANTON 6SSW       N/A     85  63  47 S16       30.04S
BROWNFIELD 2S    N/A     87  61  41 S14       30.05S
DENVR CTY 7WNW   N/A     86  53  32 S13       30.06S
GAIL 2ESE        N/A     86  68  55 S16       30.02S
LAMESA 2SE       N/A     85  69  58 S14       30.04F
LEVELLAND 4S     N/A     85  60  42 S14       30.05S
LUBBOCK 3WNW     N/A     86  63  46 S16       30.05R
MORTON 1ENE      N/A     83  62  48 S14       30.06S
ODONNELL 1N      N/A     82  67  60 S16       30.05S
PLAINS 3N        N/A     85  60  42 S10       30.06S
RALLS 1SE        N/A     83  67  57 S17       30.05S
REESE CENTER     N/A     85  63  47 S16       30.04S
SEAGRAVES 1SW    N/A     88  59  37 S14       30.05R
SEMINOLE 2NNE    N/A     89  57  34 S12       30.04S
SLATON 2NE       N/A     84  65  53 S17       30.04S
SNYDER 3E        N/A     88  68  51 S15G25    30.03S
SUNDOWN 8SW      N/A     86  62  44 S13       30.06S
TAHOKA 3NNE      N/A     85  67  53 S16       30.04S
WOLFFORTH 6SSW   N/A     85  64  48 S16       30.05S
$$

TXZ031-032-036>038-042>044-211800-
TEXAS TECH WEST TEXAS MESONET/ROLLING PLAINS

CITY           SKY/WX    TMP DP  RH WIND       PRES   REMARKS
ASPERMONT 3NE    N/A     90  70  50 S16       29.99F HX  95
FLUVANNA 3WNW    N/A     83  68  60 S17       30.03S
GRAHAM 5SSW      N/A     82  67  60 S15       30.04R
GUTHRIE 10WSW    N/A     90  67  47 S18       29.98F
HASKELL 1NW      N/A     90  66  45 S16       29.99S
JAYTON 1SSE      N/A     89  67  47 S14       30.00S
KNOX CITY 3NW    N/A     92  66  42 S18       29.98F HX  95
LK A HENRY 1NW   N/A     87  69  54 S15       30.01S
NORTHFIELD 1S    N/A     90  69  49 S17       29.98S
ODELL 4ENE       N/A     92  69  47 S20       29.97F HX  97
PADUCAH 10SW     N/A     90  69  50 S17       29.98S
POST 1NE         N/A     86  65  49 S17       30.01F
RRING SPRGS 3N   N/A     87  68  53 S21       30.01S
SEYMOUR 3NW      N/A     92  67  43 S17       29.97F HX  95
SPUR 1W          N/A     87  65  48 SW15      30.00F
WEINERT 2NNE     N/A     91  71  52 S21       29.99S HX  96
WHITE RVR 6NE    N/A     84  69  60 S18       30.02F
$$

TXZ052-054-060>062-072-078-127-140-154-169-211800-
TEXAS TECH WEST TEXAS MESONET/PERMIAN BASIN/
CONCHO VALLEY/BIG COUNTRY/EDWARDS PLATEAU

CITY           SKY/WX    TMP DP  RH WIND       PRES   REMARKS
COYANOSA 2N      N/A     93  60  33 SW12      30.01S
JUNCTION 1SSW    N/A     87  70  57 SE10      30.06F
MERTZON 3NNE     N/A     85  71  60 S15       30.05F
SAN ANGELO 7NW   N/A     87  69  55 S14       30.04S
STRLNG CT 4WSW   N/A     87  69  56 S8        30.06R
ST LAWRNCE 5SW   N/A     86  66  51 S18       30.05S
SWEETWATR 11SW   N/A     87  69  56 S20       30.06S
WALL 1E          N/A     86  69  57 S12       30.05S
$$

TXZ055-058-074-075-080-082-211800-
TEXAS TECH WEST TEXAS MESONET/FAR WEST/SOUTHWEST MOUNTAINS/TRANS PECOS

CITY           SKY/WX    TMP DP  RH WIND       PRES   REMARKS
PRSMN GAP BBNP   N/A     86  64  47 E1        30.08S
GUADLPE MTN NP   N/A     81  45  27 W12       30.21R
$$